GW7284 Weather Reports


Display with metric or nautical units.
time (UTC)temp
F
wind
direction
speed
MPH
gust
MPH
rain 1hr
in
rain 24hr
in
rain mn
in
humidity
%
barometer
mb
20260906151609 81 151 0.0 0.0 0.00 0.00 0.00 76 994.6
20260906151106 81 164 1.0 4.0 0.00 0.00 0.00 75 994.5
20260906150600 81 128 0.0 1.0 0.00 0.00 0.00 78 994.1
20260906150056 80 284 0.0 0.0 0.00 0.00 0.00 76 994.1
20260906145554 80 236 1.0 1.0 0.00 0.00 0.00 76 994.1
20260906145050 79 249 0.0 2.0 0.00 0.00 0.00 79 994.3
20260906144544 79 302 0.0 1.0 0.00 0.00 0.00 79 994.2
20260906144039 78 274 0.0 1.0 0.00 0.00 0.00 80 994.2
20260906143534 78 281 1.0 2.0 0.00 0.00 0.00 80 994.3
20260906143032 78 279 0.0 3.0 0.00 0.00 0.00 81 994.5
20260906142530 78 271 1.0 1.0 0.00 0.00 0.00 82 994.0
20260906142026 77 275 0.0 0.0 0.00 0.00 0.00 83 994.1
20260906141525 77 274 0.0 0.0 0.00 0.00 0.00 83 994.1
20260906141021 77 274 1.0 1.0 0.00 0.00 0.00 81 994.0
20260906140520 77 274 0.0 0.0 0.00 0.00 0.00 82 993.9
20260906140019 77 274 0.0 1.0 0.00 0.00 0.00 83 994.2
20260906135517 76 275 0.0 1.0 0.00 0.00 0.00 83 994.0
20260906135013 76 275 0.0 0.0 0.00 0.00 0.00 83 994.0
20260906134508 76 275 0.0 0.0 0.00 0.00 0.00 85 994.0
20260906134008 76 275 0.0 0.0 0.00 0.00 0.00 85 994.2
20260906133504 76 276 0.0 0.0 0.00 0.00 0.00 86 994.3
20260906132959 76 276 0.0 0.0 0.00 0.00 0.00 84 994.1
20260906132454 76 276 0.0 0.0 0.00 0.00 0.00 85 994.2
20260906131949 75 280 0.0 2.0 0.00 0.00 0.00 85 994.1
20260906131445 75 290 0.0 3.0 0.00 0.00 0.00 87 994.4
20260906130940 75 331 0.0 1.0 0.00 0.00 0.00 86 994.2
20260906130439 75 276 0.0 1.0 0.00 0.00 0.00 87 994.1
20260906125934 75 275 1.0 1.0 0.00 0.00 0.00 87 994.2
20260906125431 75 277 0.0 1.0 0.00 0.00 0.00 88 994.6
20260906124931 75 278 0.0 2.0 0.00 0.00 0.00 88 994.3
20260906124428 74 270 0.0 1.0 0.00 0.00 0.00 89 994.1
20260906123927 74 283 0.0 2.0 0.00 0.00 0.00 89 994.0
20260906123426 74 289 1.0 1.0 0.00 0.00 0.00 89 994.0
20260906122921 74 274 1.0 1.0 0.00 0.00 0.00 91 994.0
20260906122421 74 275 0.0 1.0 0.00 0.00 0.00 91 993.9
20260906121919 74 278 0.0 1.0 0.00 0.00 0.00 91 993.8
20260906121414 74 278 0.0 1.0 0.00 0.00 0.00 92 993.5
20260906120911 74 278 0.0 1.0 0.00 0.00 0.00 92 993.5
20260906120406 74 278 1.0 1.0 0.00 0.00 0.00 92 993.6
20260906115902 74 269 0.0 0.0 0.00 0.00 0.00 92 993.6
20260906115357 74 270 0.0 0.0 0.00 0.00 0.00 92 993.6
20260906114856 74 264 0.0 1.0 0.00 0.00 0.00 92 993.5
20260906114352 74 264 0.0 0.0 0.00 0.00 0.00 91 993.2
20260906113847 74 264 0.0 0.0 0.00 0.00 0.00 91 993.2
20260906113346 75 264 0.0 0.0 0.00 0.00 0.00 91 993.1
20260906112841 75 264 0.0 0.0 0.00 0.00 0.00 90 993.1
20260906112337 75 265 0.0 1.0 0.00 0.00 0.00 91 993.4
20260906111832 75 265 0.0 0.0 0.00 0.00 0.00 91 993.1
20260906111331 75 265 1.0 1.0 0.00 0.00 0.00 91 993.2
20260906110827 75 265 0.0 1.0 0.00 0.00 0.00 91 993.2
20260906110323 75 264 0.0 0.0 0.00 0.00 0.00 90 993.1
20260906105821 76 264 0.0 0.0 0.00 0.00 0.00 89 993.3
20260906105317 76 264 0.0 0.0 0.00 0.00 0.00 88 993.2
20260906104813 76 264 0.0 0.0 0.00 0.00 0.00 87 993.1
20260906104312 76 172 1.0 1.0 0.00 0.00 0.00 87 993.1
20260906103810 76 260 0.0 1.0 0.00 0.00 0.00 88 993.0
20260906103309 76 228 0.0 0.0 0.00 0.00 0.00 87 993.2
20260906102805 76 228 0.0 0.0 0.00 0.00 0.00 87 993.2
20260906102306 76 223 1.0 1.0 0.00 0.00 0.00 88 992.9
20260906101800 76 222 0.0 1.0 0.00 0.00 0.00 89 992.8
20260906101259 76 245 1.0 1.0 0.00 0.00 0.00 88 992.8
20260906100755 76 318 0.0 0.0 0.00 0.00 0.00 89 992.7
20260906100254 76 334 0.0 0.0 0.00 0.00 0.00 90 992.7
20260906095750 77 334 1.0 1.0 0.00 0.00 0.00 90 992.6
20260906095245 77 292 0.0 1.0 0.00 0.00 0.00 90 992.8
20260906094744 77 293 0.0 1.0 0.00 0.00 0.00 90 992.5
20260906094239 77 211 0.0 0.0 0.00 0.00 0.00 89 992.6
20260906093736 77 211 0.0 0.0 0.00 0.00 0.00 90 992.5
20260906093231 77 104 0.0 1.0 0.00 0.00 0.00 90 992.5
20260906092726 77 92 0.0 1.0 0.00 0.00 0.00 90 992.5
20260906092226 77 250 1.0 1.0 0.00 0.00 0.00 90 992.4
20260906091722 77 271 0.0 1.0 0.00 0.00 0.00 90 992.6
20260906091218 78 237 0.0 1.0 0.00 0.00 0.00 89 992.6
20260906090714 78 241 0.0 0.0 0.00 0.00 0.00 89 992.6
20260906090213 78 242 0.0 2.0 0.00 0.00 0.00 89 992.4
20260906085713 78 186 1.0 2.0 0.00 0.00 0.00 89 992.3
20260906085212 78 164 0.0 1.0 0.00 0.00 0.00 89 992.2
20260906084707 78 163 0.0 1.0 0.00 0.00 0.00 89 992.0
20260906084206 78 137 0.0 0.0 0.00 0.00 0.00 89 992.2
20260906083701 78 137 0.0 0.0 0.00 0.00 0.00 89 992.1
20260906083157 78 166 1.0 1.0 0.00 0.00 0.00 88 992.0
20260906082652 78 140 0.0 0.0 0.00 0.00 0.00 88 992.0
20260906082147 78 125 0.0 1.0 0.00 0.00 0.00 89 991.9
20260906081643 78 153 0.0 1.0 0.00 0.00 0.00 89 991.8
20260906081138 78 150 0.0 0.0 0.00 0.00 0.00 88 991.6
20260906080635 78 152 0.0 1.0 0.00 0.00 0.00 88 992.0
20260906080131 78 142 0.0 1.0 0.00 0.00 0.00 88 991.7
20260906075630 78 140 0.0 0.0 0.00 0.00 0.00 89 991.8
20260906075125 78 140 0.0 0.0 0.00 0.00 0.00 88 991.8
20260906074620 78 139 0.0 2.0 0.00 0.00 0.00 89 991.9
20260906074119 78 95 0.0 1.0 0.00 0.00 0.00 89 991.8
20260906073614 78 95 1.0 1.0 0.00 0.00 0.00 89 991.8
20260906073109 78 94 0.0 0.0 0.00 0.00 0.00 89 991.9
20260906072604 78 95 1.0 1.0 0.00 0.00 0.00 88 992.0
20260906072100 78 95 0.0 0.0 0.00 0.00 0.00 88 992.1
20260906071557 78 95 0.0 0.0 0.00 0.00 0.00 87 992.1
20260906071051 79 95 0.0 0.0 0.00 0.00 0.00 87 992.1
20260906070548 79 95 0.0 0.0 0.00 0.00 0.00 85 991.8
20260906070043 79 95 0.0 0.0 0.00 0.00 0.00 83 992.1
20260906065542 79 95 0.0 0.0 0.00 0.00 0.00 84 992.0
20260906065038 79 95 0.0 0.0 0.00 0.00 0.00 84 992.0
20260906064534 79 95 0.0 0.0 0.00 0.00 0.00 84 992.1
20260906064029 79 95 0.0 0.0 0.00 0.00 0.00 83 992.3
20260906063524 79 95 0.0 0.0 0.00 0.00 0.00 84 992.1
20260906063020 80 95 0.0 0.0 0.00 0.00 0.00 84 992.3
20260906062515 80 95 0.0 0.0 0.00 0.00 0.00 81 992.2
20260906062009 80 95 0.0 0.0 0.00 0.00 0.00 81 992.4
20260906061505 80 95 0.0 0.0 0.00 0.00 0.00 82 992.3
20260906060959 80 95 0.0 0.0 0.00 0.00 0.00 81 992.0
20260906060456 80 95 0.0 0.0 0.00 0.00 0.00 80 992.2
20260906055953 80 95 0.0 0.0 0.00 0.00 0.00 80 992.4
20260906055448 80 95 0.0 0.0 0.00 0.00 0.00 80 992.4
20260906054943 80 95 0.0 0.0 0.00 0.00 0.00 79 992.1
20260906054443 81 95 0.0 0.0 0.00 0.00 0.00 79 992.3
20260906053939 81 95 0.0 1.0 0.00 0.00 0.00 78 992.2
20260906053435 81 95 0.0 0.0 0.00 0.00 0.00 78 992.2
20260906052931 80 95 0.0 0.0 0.00 0.00 0.00 78 992.2
20260906052427 80 95 0.0 0.0 0.00 0.00 0.00 78 992.3
20260906051923 80 95 0.0 0.0 0.00 0.00 0.00 78 992.2
20260906051424 81 95 0.0 0.0 0.00 0.00 0.00 78 992.1
20260906050919 81 95 0.0 0.0 0.00 0.00 0.00 79 992.1
20260906050419 81 95 0.0 0.0 0.00 0.00 0.00 78 992.1
20260906045918 81 95 0.0 0.0 0.00 0.28 0.28 75 991.8
20260906045417 81 95 0.0 0.0 0.00 0.28 0.28 76 992.2
20260906044913 81 95 0.0 0.0 0.00 0.28 0.28 75 992.1
20260906044414 81 95 0.0 0.0 0.00 0.28 0.28 75 992.0
20260906043909 81 95 0.0 0.0 0.00 0.28 0.28 74 992.0
20260906043405 81 95 0.0 0.0 0.00 0.28 0.28 74 992.0
20260906042900 81 95 0.0 0.0 0.00 0.28 0.28 75 992.1
20260906042359 81 95 0.0 0.0 0.00 0.28 0.28 74 991.8
20260906041855 81 95 0.0 0.0 0.00 0.28 0.28 76 991.7
20260906041350 82 95 0.0 0.0 0.00 0.28 0.28 75 992.1
20260906040845 82 95 0.0 0.0 0.00 0.28 0.28 75 991.7
20260906040340 82 95 0.0 0.0 0.00 0.28 0.28 74 991.8
20260906035836 82 95 0.0 0.0 0.00 0.28 0.28 74 991.5
20260906035331 82 95 0.0 0.0 0.00 0.28 0.28 74 991.8
20260906034827 82 95 0.0 0.0 0.00 0.28 0.28 72 991.6
20260906034327 82 95 0.0 0.0 0.00 0.28 0.28 71 991.6
20260906033823 82 95 0.0 0.0 0.00 0.28 0.28 71 991.8
20260906033321 82 95 0.0 0.0 0.00 0.28 0.28 72 991.5
20260906032818 82 95 0.0 0.0 0.00 0.28 0.28 71 991.7
20260906032314 82 95 0.0 0.0 0.00 0.28 0.28 70 991.7
20260906031809 82 95 0.0 0.0 0.00 0.28 0.28 71 991.5
20260906031304 82 95 0.0 0.0 0.00 0.28 0.28 70 991.6
20260906030804 82 95 0.0 0.0 0.00 0.28 0.28 70 991.4
20260906030259 83 95 0.0 0.0 0.00 0.28 0.28 70 991.5
20260906025759 83 95 0.0 0.0 0.00 0.28 0.28 68 991.4
20260906025253 83 95 0.0 0.0 0.00 0.28 0.28 68 991.3
20260906024752 83 95 0.0 0.0 0.00 0.28 0.28 67 991.3
20260906024251 83 95 0.0 0.0 0.00 0.28 0.28 67 991.4
20260906023747 83 95 0.0 0.0 0.00 0.28 0.28 66 991.3
20260906023242 84 95 0.0 0.0 0.00 0.28 0.28 67 991.2
20260906022738 84 95 0.0 0.0 0.00 0.28 0.28 66 990.9
20260906022233 84 95 0.0 1.0 0.00 0.28 0.28 67 990.9
20260906021729 84 95 0.0 0.0 0.00 0.28 0.28 66 990.9
20260906021228 84 86 0.0 0.0 0.00 0.28 0.28 69 990.8
20260906020723 84 86 0.0 0.0 0.00 0.28 0.28 67 990.6
20260906020217 84 86 0.0 0.0 0.00 0.28 0.28 67 990.3
20260906015712 84 86 0.0 0.0 0.00 0.28 0.28 67 990.3
20260906015210 84 86 0.0 0.0 0.00 0.28 0.28 67 990.3
20260906014711 85 86 0.0 0.0 0.00 0.28 0.28 67 990.4
20260906014207 85 86 0.0 0.0 0.00 0.28 0.28 66 990.2
20260906013703 85 86 0.0 0.0 0.00 0.28 0.28 65 990.3
20260906013203 85 86 0.0 0.0 0.00 0.28 0.28 65 990.4
20260906012658 85 86 0.0 0.0 0.00 0.28 0.28 64 990.1
20260906012157 85 86 0.0 0.0 0.00 0.28 0.28 65 990.1
20260906011653 86 86 0.0 0.0 0.00 0.28 0.28 64 990.1
20260906011148 86 86 0.0 0.0 0.00 0.28 0.28 62 990.1
20260906010643 86 86 0.0 0.0 0.00 0.28 0.28 63 990.1
20260906010139 86 86 0.0 0.0 0.00 0.28 0.28 63 990.0
20260906005639 87 86 0.0 0.0 0.00 0.28 0.28 62 990.1
20260906005138 87 86 0.0 0.0 0.00 0.28 0.28 61 990.1
20260906004637 87 86 0.0 0.0 0.00 0.28 0.28 60 989.9
20260906004132 87 86 0.0 0.0 0.00 0.28 0.28 60 990.0
20260906003627 88 86 0.0 0.0 0.00 0.28 0.28 60 990.0
20260906003123 88 86 0.0 0.0 0.00 0.28 0.28 59 990.0
20260906002618 89 86 0.0 0.0 0.00 0.28 0.28 58 989.8
20260906002113 89 87 0.0 0.0 0.00 0.28 0.28 58 990.0
20260906001609 90 87 0.0 0.0 0.00 0.28 0.28 57 989.8
20260906001108 90 87 0.0 0.0 0.00 0.28 0.28 56 990.0
20260906000605 91 87 0.0 0.0 0.00 0.28 0.28 57 990.0
20260906000059 92 87 0.0 0.0 0.00 0.28 0.28 57 990.2
20260905235558 93 87 0.0 0.0 0.00 0.28 0.28 55 990.0
20260905235054 94 87 0.0 0.0 0.00 0.28 0.28 54 990.0
20260905234549 94 87 0.0 0.0 0.00 0.28 0.28 53 989.9
20260905234044 95 87 0.0 0.0 0.00 0.28 0.28 54 989.9
20260905233544 95 87 0.0 0.0 0.00 0.28 0.28 51 989.7
20260905233044 96 87 0.0 1.0 0.00 0.28 0.28 51 990.1
20260905232540 96 87 0.0 0.0 0.00 0.28 0.28 51 990.1
20260905232035 96 87 0.0 0.0 0.00 0.28 0.28 50 990.1
20260905231530 96 87 1.0 1.0 0.00 0.28 0.28 50 990.0
20260905231026 97 8 0.0 1.0 0.00 0.28 0.28 47 990.0
20260905230526 97 346 0.0 1.0 0.00 0.28 0.28 48 990.0
20260905230024 97 358 4.0 4.0 0.00 0.28 0.28 46 990.0
20260905225519 97 11 1.0 3.0 0.00 0.28 0.28 48 989.9
20260905225014 96 26 0.0 1.0 0.00 0.28 0.28 51 989.9
20260905224509 94 16 2.0 4.0 0.00 0.28 0.28 50 990.0
20260905224008 93 189 1.0 1.0 0.00 0.28 0.28 57 989.8
20260905223506 92 192 0.0 0.0 0.00 0.28 0.28 54 989.7
20260905223001 93 192 0.0 0.0 0.00 0.28 0.28 54 989.5
20260905222501 94 192 0.0 0.0 0.00 0.28 0.28 52 989.9
20260905221956 97 192 0.0 0.0 0.00 0.28 0.28 49 989.9
20260905221453 99 130 0.0 0.0 0.00 0.28 0.28 46 989.5
20260905220949 100 130 0.0 1.0 0.00 0.28 0.28 48 989.8
20260905220445 99 114 0.0 2.0 0.00 0.28 0.28 48 989.9
20260905215944 99 41 1.0 1.0 0.00 0.28 0.28 47 989.8
20260905215440 99 25 1.0 1.0 0.00 0.28 0.28 49 990.1
20260905214936 101 6 0.0 3.0 0.00 0.28 0.28 44 989.9
20260905214432 103 340 1.0 4.0 0.00 0.28 0.28 42 989.9
20260905213931 104 234 1.0 1.0 0.00 0.28 0.28 40 989.9
20260905213428 105 332 1.0 1.0 0.00 0.28 0.28 38 989.9
20260905212923 105 309 0.0 1.0 0.00 0.28 0.28 32 989.6
20260905212418 104 309 0.0 2.0 0.00 0.28 0.28 32 989.8
20260905211917 103 19 1.0 2.0 0.00 0.28 0.28 38 989.8
20260905211413 103 359 0.0 2.0 0.00 0.28 0.28 41 989.8
20260905210909 103 261 1.0 1.0 0.00 0.28 0.28 41 989.8
20260905210409 103 347 1.0 1.0 0.00 0.28 0.28 36 989.8
20260905205908 104 289 0.0 1.0 0.00 0.28 0.28 37 989.8
20260905205403 103 290 0.0 0.0 0.00 0.28 0.28 38 990.0
20260905204901 103 289 1.0 1.0 0.00 0.28 0.28 33 990.3
20260905204358 101 301 2.0 2.0 0.00 0.28 0.28 36 990.4
20260905203856 102 286 1.0 1.0 0.00 0.28 0.28 37 990.4
20260905203352 101 300 1.0 1.0 0.00 0.28 0.28 38 990.3
20260905202848 100 249 0.0 1.0 0.00 0.28 0.28 39 990.4
20260905202349 100 267 0.0 1.0 0.00 0.28 0.28 46 990.7
20260905201845 100 352 1.0 1.0 0.00 0.28 0.28 48 990.7
20260905201340 100 126 0.0 0.0 0.00 0.28 0.28 47 990.5
20260905200839 102 128 0.0 2.0 0.00 0.28 0.28 38 990.7
20260905200336 100 232 0.0 1.0 0.00 0.28 0.28 40 990.7
20260905195833 98 252 0.0 2.0 0.00 0.28 0.28 45 990.7
20260905195329 96 0 0.0 1.0 0.00 0.28 0.28 48 990.9
20260905194825 95 314 1.0 1.0 0.00 0.28 0.28 56 990.9
20260905194324 93 280 2.0 1.0 0.00 0.28 0.28 56 991.3
20260905193823 90 282 1.0 1.0 0.00 0.28 0.28 60 990.9
20260905193319 86 47 0.0 0.0 0.00 0.28 0.28 80 991.0
20260905192814 84 54 0.0 1.0 0.00 0.28 0.28 73 991.0
20260905192310 83 54 1.0 2.0 0.00 0.28 0.28 83 991.2
20260905191809 83 51 0.0 0.0 0.00 0.28 0.28 74 991.4
20260905191308 82 50 0.0 0.0 0.00 0.28 0.28 75 991.3
20260905190806 79 51 0.0 0.0 0.00 0.28 0.28 84 991.1
20260905190301 76 51 0.0 1.0 0.00 0.28 0.28 89 991.2
20260905185800 75 50 1.0 1.0 0.00 0.28 0.28 90 991.5
20260905185255 75 50 0.0 1.0 0.00 0.28 0.28 89 991.6
20260905184754 76 46 0.0 1.0 0.07 0.28 0.28 88 991.6
20260905184254 77 333 3.0 3.0 1.49 0.28 0.28 79 991.7
20260905183753 79 93 1.0 8.0 1.63 0.27 0.27 79 992.5
20260905183248 98 223 9.0 18.0 0.21 0.04 0.04 52 992.4
20260905182748 102 15 4.0 4.0 0.00 0.00 0.00 39 991.7
20260905182247 102 275 2.0 2.0 0.00 0.00 0.00 40 991.5
20260905181743 102 16 1.0 1.0 0.00 0.00 0.00 38 991.4
20260905181242 101 189 1.0 3.0 0.00 0.00 0.00 39 991.6
20260905180737 101 242 1.0 4.0 0.00 0.00 0.00 40 991.7
20260905180232 101 132 1.0 6.0 0.00 0.00 0.00 40 991.7
20260905175732 101 290 1.0 3.0 0.00 0.00 0.00 40 991.9
20260905175227 100 322 3.0 3.0 0.00 0.00 0.00 42 991.7
20260905174722 100 95 0.0 3.0 0.00 0.00 0.00 42 991.8
20260905174218 100 16 1.0 4.0 0.00 0.00 0.00 43 991.9
20260905173714 99 147 1.0 2.0 0.00 0.00 0.00 45 992.0
20260905173210 100 166 3.0 3.0 0.00 0.00 0.00 43 991.9
20260905172709 99 226 1.0 2.0 0.00 0.00 0.00 46 992.1
20260905172203 98 145 1.0 2.0 0.00 0.00 0.00 46 992.2
20260905171659 98 264 0.0 4.0 0.00 0.00 0.00 47 992.3
20260905171155 98 142 2.0 2.0 0.00 0.00 0.00 48 992.3
20260905170652 97 150 0.0 2.0 0.00 0.00 0.00 47 992.2
20260905170152 96 249 1.0 3.0 0.00 0.00 0.00 50 992.3
20260905165651 96 145 2.0 2.0 0.00 0.00 0.00 51 992.4
20260905165147 96 172 1.0 2.0 0.00 0.00 0.00 50 992.5
20260905164642 96 201 3.0 4.0 0.00 0.00 0.00 52 992.7
20260905164141 95 203 1.0 2.0 0.00 0.00 0.00 53 992.5
20260905163637 94 109 0.0 0.0 0.00 0.00 0.00 52 992.8
20260905163134 93 268 0.0 1.0 0.00 0.00 0.00 53 992.7
20260905162630 93 163 1.0 2.0 0.00 0.00 0.00 54 992.8
20260905162129 92 323 0.0 1.0 0.00 0.00 0.00 56 992.6
20260905161628 92 175 1.0 1.0 0.00 0.00 0.00 57 993.0
20260905161127 91 266 1.0 1.0 0.00 0.00 0.00 57 992.9
20260905160627 91 276 1.0 2.0 0.00 0.00 0.00 57 992.8
20260905160126 90 278 1.0 1.0 0.00 0.00 0.00 59 992.9
20260905155626 90 312 1.0 1.0 0.00 0.00 0.00 59 993.0
20260905155125 89 164 1.0 2.0 0.00 0.00 0.00 60 992.8
20260905154620 89 290 0.0 3.0 0.00 0.00 0.00 61 992.7
20260905154115 89 101 2.0 3.0 0.00 0.00 0.00 61 992.9
20260905153611 89 57 1.0 3.0 0.00 0.00 0.00 62 993.0
20260905153106 88 215 1.0 2.0 0.00 0.00 0.00 61 992.7
20260905152601 88 287 1.0 2.0 0.00 0.00 0.00 62 993.1
20260905152056 87 146 1.0 2.0 0.00 0.00 0.00 63 992.8